| time (UTC) | temp C | wind direction | speed KPH | gust KPH | rain 1hr cm | rain 24hr cm | rain mn cm | humidity % | barometer mb |
| 20260505163049 | 21 | 247 | 6.4 | 14.5 | 0.00 | 0.00 | 0.00 | 65 | 1014.7 |
| 20260505161544 | 21 | 238 | 4.8 | 14.5 | 0.00 | 0.00 | 0.00 | 65 | 1014.9 |
| 20260505153048 | 20 | 205 | 3.2 | 11.3 | 0.00 | 0.00 | 0.00 | 71 | 1014.6 |
| 20260505151547 | 19 | 167 | 1.6 | 12.9 | 0.00 | 0.00 | 0.00 | 70 | 1014.6 |
| 20260505124600 | 16 | 135 | 4.8 | 12.9 | 0.00 | 0.00 | 0.00 | 73 | 1014.4 |
| 20260505123053 | 15 | 148 | 0.0 | 4.8 | 0.00 | 0.00 | 0.00 | 77 | 1014.2 |
| 20260505121550 | 14 | 150 | 1.6 | 8.0 | 0.00 | 0.00 | 0.00 | 76 | 1013.9 |
| 20260505120101 | 14 | 155 | 1.6 | 8.0 | 0.00 | 0.00 | 0.00 | 75 | 1013.7 |
| 20260505114547 | 13 | 135 | 3.2 | 6.4 | 0.00 | 0.00 | 0.00 | 75 | 1013.6 |
| 20260505113045 | 13 | 149 | 1.6 | 6.4 | 0.00 | 0.00 | 0.00 | 74 | 1013.5 |
| 20260505111548 | 13 | 149 | 0.0 | 4.8 | 0.00 | 0.00 | 0.00 | 74 | 1013.4 |
| 20260505101546 | 13 | 157 | 3.2 | 9.7 | 0.00 | 0.00 | 0.00 | 73 | 1012.8 |
| 20260505100048 | 13 | 135 | 4.8 | 11.3 | 0.00 | 0.00 | 0.00 | 74 | 1012.5 |
| 20260505094545 | 13 | 0 | 1.6 | 6.4 | 0.00 | 0.00 | 0.00 | 74 | 1012.7 |
| 20260505093045 | 14 | 0 | 0.0 | 4.8 | 0.00 | 0.00 | 0.00 | 73 | 1012.9 |
| 20260505091552 | 14 | 0 | 1.6 | 4.8 | 0.00 | 0.00 | 0.00 | 73 | 1012.9 |
| 20260505090048 | 14 | 0 | 1.6 | 6.4 | 0.00 | 0.00 | 0.00 | 72 | 1012.5 |
| 20260505084550 | 15 | 140 | 3.2 | 6.4 | 0.00 | 0.00 | 0.00 | 72 | 1012.5 |
| 20260505083044 | 15 | 138 | 1.6 | 6.4 | 0.00 | 0.00 | 0.00 | 73 | 1012.5 |
| 20260505081552 | 15 | 139 | 1.6 | 6.4 | 0.00 | 0.00 | 0.00 | 73 | 1012.5 |
| 20260505080053 | 15 | 143 | 3.2 | 6.4 | 0.00 | 0.00 | 0.00 | 73 | 1012.5 |
| 20260505074549 | 15 | 138 | 4.8 | 8.0 | 0.00 | 0.00 | 0.00 | 73 | 1012.5 |
| 20260505073053 | 15 | 142 | 1.6 | 6.4 | 0.00 | 0.00 | 0.00 | 73 | 1012.5 |
| 20260505071545 | 15 | 142 | 0.0 | 4.8 | 0.00 | 0.00 | 0.00 | 72 | 1012.7 |
| 20260505070055 | 15 | 137 | 1.6 | 4.8 | 0.00 | 0.00 | 0.00 | 71 | 1012.9 |
| 20260505064546 | 15 | 136 | 1.6 | 6.4 | 0.00 | 0.00 | 0.00 | 71 | 1013.0 |
| 20260505063109 | 16 | 136 | 3.2 | 11.3 | 0.00 | 0.00 | 0.00 | 70 | 1012.8 |
| 20260505061556 | 15 | 128 | 4.8 | 12.9 | 0.00 | 0.00 | 0.00 | 70 | 1012.9 |
| 20260505060049 | 16 | 0 | 3.2 | 8.0 | 0.00 | 0.00 | 0.00 | 69 | 1012.9 |
| 20260505054553 | 16 | 142 | 4.8 | 11.3 | 0.00 | 0.00 | 0.00 | 68 | 1013.1 |
| 20260505053056 | 16 | 142 | 4.8 | 8.0 | 0.00 | 0.00 | 0.00 | 68 | 1013.1 |
| 20260505051547 | 16 | 150 | 4.8 | 9.7 | 0.00 | 0.00 | 0.00 | 67 | 1013.0 |
| 20260505041553 | 17 | 136 | 4.8 | 12.9 | 0.00 | 0.00 | 0.00 | 64 | 1012.7 |
| 20260505040052 | 17 | 154 | 4.8 | 11.3 | 0.00 | 0.00 | 0.00 | 65 | 1012.7 |
| 20260505034545 | 17 | 136 | 3.2 | 11.3 | 0.00 | 0.00 | 0.00 | 65 | 1012.6 |
| 20260505033045 | 17 | 140 | 3.2 | 9.7 | 0.00 | 0.00 | 0.00 | 65 | 1012.7 |
| 20260505031553 | 18 | 149 | 3.2 | 9.7 | 0.00 | 0.00 | 0.00 | 65 | 1012.8 |
| 20260505030047 | 18 | 147 | 3.2 | 14.5 | 0.00 | 0.00 | 0.00 | 65 | 1012.7 |
| 20260505024556 | 18 | 140 | 6.4 | 14.5 | 0.00 | 0.00 | 0.00 | 66 | 1012.6 |
| 20260505023046 | 18 | 145 | 4.8 | 11.3 | 0.00 | 0.00 | 0.00 | 66 | 1012.7 |
| 20260505021547 | 18 | 134 | 4.8 | 11.3 | 0.00 | 0.00 | 0.00 | 63 | 1012.7 |
| 20260505020044 | 18 | 142 | 3.2 | 6.4 | 0.00 | 0.00 | 0.00 | 62 | 1012.6 |
| 20260505014602 | 19 | 139 | 3.2 | 8.0 | 0.00 | 0.00 | 0.00 | 61 | 1012.6 |
| 20260505013043 | 19 | 0 | 0.0 | 0.0 | 0.00 | 0.00 | 0.00 | 60 | 1012.4 |
| 20260505011556 | 20 | 0 | 0.0 | 0.0 | 0.00 | 0.00 | 0.00 | 59 | 1012.3 |
| 20260505010045 | 20 | 0 | 0.0 | 6.4 | 0.00 | 0.00 | 0.00 | 57 | 1012.2 |
| 20260505004602 | 20 | 215 | 3.2 | 6.4 | 0.00 | 0.00 | 0.00 | 56 | 1012.2 |
| 20260505003049 | 21 | 225 | 1.6 | 6.4 | 0.00 | 0.00 | 0.00 | 55 | 1012.0 |
| 20260505001550 | 21 | 225 | 4.8 | 11.3 | 0.00 | 0.00 | 0.00 | 54 | 1012.1 |
| 20260505000057 | 22 | 236 | 3.2 | 9.7 | 0.00 | 0.00 | 0.00 | 53 | 1011.9 |
| 20260504234550 | 22 | 234 | 4.8 | 14.5 | 0.00 | 0.00 | 0.00 | 52 | 1012.0 |
| 20260504233106 | 22 | 216 | 4.8 | 14.5 | 0.00 | 0.00 | 0.00 | 53 | 1011.9 |
| 20260504231548 | 23 | 235 | 4.8 | 12.9 | 0.00 | 0.00 | 0.00 | 51 | 1012.1 |
| 20260504230046 | 23 | 233 | 4.8 | 22.5 | 0.00 | 0.00 | 0.00 | 50 | 1012.1 |
| 20260504224556 | 23 | 236 | 4.8 | 11.3 | 0.00 | 0.00 | 0.00 | 50 | 1012.1 |
| 20260504223109 | 23 | 246 | 4.8 | 16.1 | 0.00 | 0.00 | 0.00 | 50 | 1012.1 |
| 20260504221544 | 24 | 209 | 3.2 | 14.5 | 0.00 | 0.00 | 0.00 | 53 | 1012.1 |
| 20260504220053 | 24 | 223 | 11.3 | 19.3 | 0.00 | 0.00 | 0.00 | 48 | 1012.0 |
| 20260504214548 | 24 | 210 | 6.4 | 14.5 | 0.00 | 0.00 | 0.00 | 49 | 1012.1 |
| 20260504213057 | 24 | 242 | 8.0 | 17.7 | 0.00 | 0.00 | 0.00 | 51 | 1011.9 |
| 20260504211546 | 25 | 202 | 3.2 | 17.7 | 0.00 | 0.00 | 0.00 | 52 | 1011.9 |
| 20260504210056 | 25 | 217 | 6.4 | 17.7 | 0.00 | 0.00 | 0.00 | 51 | 1012.1 |
| 20260504204548 | 25 | 209 | 9.7 | 22.5 | 0.00 | 0.00 | 0.00 | 49 | 1012.3 |
| 20260504203059 | 24 | 212 | 11.3 | 22.5 | 0.00 | 0.00 | 0.00 | 52 | 1012.7 |
| 20260504201549 | 25 | 207 | 6.4 | 17.7 | 0.00 | 0.00 | 0.00 | 52 | 1012.9 |
| 20260504200046 | 24 | 190 | 4.8 | 16.1 | 0.00 | 0.00 | 0.00 | 53 | 1013.0 |
| 20260504194546 | 24 | 286 | 8.0 | 16.1 | 0.00 | 0.00 | 0.00 | 51 | 1013.1 |
| 20260504193046 | 24 | 226 | 4.8 | 16.1 | 0.00 | 0.00 | 0.00 | 57 | 1013.3 |
| 20260504191557 | 23 | 219 | 4.8 | 14.5 | 0.00 | 0.00 | 0.00 | 59 | 1013.5 |
| 20260504190050 | 24 | 219 | 4.8 | 16.1 | 0.00 | 0.00 | 0.00 | 55 | 1013.7 |
| 20260504184546 | 24 | 205 | 6.4 | 12.9 | 0.00 | 0.00 | 0.00 | 55 | 1013.9 |
| 20260504183046 | 23 | 213 | 6.4 | 16.1 | 0.00 | 0.00 | 0.00 | 60 | 1014.0 |
| 20260504181557 | 23 | 191 | 4.8 | 11.3 | 0.00 | 0.00 | 0.00 | 58 | 1014.0 |
| 20260504180055 | 23 | 212 | 4.8 | 11.3 | 0.00 | 0.00 | 0.00 | 58 | 1014.1 |
| 20260504174546 | 22 | 209 | 3.2 | 16.1 | 0.00 | 0.00 | 0.00 | 62 | 1014.2 |
| 20260504173051 | 22 | 211 | 6.4 | 17.7 | 0.00 | 0.00 | 0.00 | 61 | 1014.3 |
| 20260504171555 | 22 | 235 | 6.4 | 12.9 | 0.00 | 0.00 | 0.00 | 63 | 1014.7 |